LRI2811 SKBO-SVMI

Flight info

Callsign LRI2811
Flight time 1h 25m
Altitude 39000
Route DANSA4R AKROB DCT KIKAS UP533 PBL ALDAK1
Aircraft B772/H-SDE2E3FGHIJ5LORVWXY/LB1D1

Departure

Time 2025-10-09 12:54
Airport El Dorado International Airport (SKBO)

Arrival

Time 2025-10-09 14:19
Airport Maiquetía Simón Bolívar International Airport (SVMI)
Time Latitude Longitude Altitude Speed Heading
2025-10-09 12:19 4.70024 -74.14384 8373 ft 0 kts 37°
2025-10-09 12:42 4.70008 -74.14396 8373 ft 2 kts 31°
2025-10-09 12:42 4.69979 -74.14403 8373 ft 2 kts 354°
2025-10-09 12:43 4.69952 -74.14392 8373 ft 2 kts 319°
2025-10-09 12:43 4.69944 -74.14384 8373 ft 0 kts 307°
2025-10-09 12:44 4.69942 -74.14381 8372 ft 0 kts 306°
2025-10-09 12:45 4.69947 -74.14389 8372 ft 3 kts 308°
2025-10-09 12:46 4.70017 -74.14479 8373 ft 11 kts 307°
2025-10-09 12:46 4.70010 -74.14615 8373 ft 13 kts 217°
2025-10-09 12:47 4.69836 -74.14745 8372 ft 17 kts 216°
2025-10-09 12:47 4.69760 -74.14833 8371 ft 17 kts 274°
2025-10-09 12:48 4.69984 -74.15149 8372 ft 19 kts 307°
2025-10-09 12:48 4.70154 -74.15375 8372 ft 21 kts 307°
2025-10-09 12:49 4.70339 -74.15623 8370 ft 23 kts 307°
2025-10-09 12:49 4.70544 -74.15892 8365 ft 25 kts 307°
2025-10-09 12:50 4.70774 -74.16194 8361 ft 28 kts 305°
2025-10-09 12:50 4.71016 -74.16516 8360 ft 29 kts 306°
2025-10-09 12:51 4.71196 -74.16775 8361 ft 14 kts 267°
2025-10-09 12:51 4.71131 -74.16849 8360 ft 15 kts 217°
2025-10-09 12:52 4.70923 -74.16743 8360 ft 16 kts 128°
2025-10-09 12:52 4.70536 -74.16235 8362 ft 94 kts 128°
2025-10-09 12:53 4.69336 -74.14647 8378 ft 185 kts 125°
2025-10-09 12:53 4.67744 -74.12525 9262 ft 196 kts 121°
2025-10-09 12:54 4.67331 -74.09906 10268 ft 203 kts 68°
2025-10-09 12:54 4.69531 -74.08295 10915 ft 216 kts 359°
2025-10-09 12:55 4.71001 -74.08655 11340 ft 219 kts 344°
2025-10-09 12:55 4.74023 -74.08182 11913 ft 237 kts 27°
2025-10-09 12:56 4.78849 -74.06426 13491 ft 252 kts 20°
2025-10-09 12:56 4.82343 -74.05254 14334 ft 275 kts 19°
2025-10-09 12:57 4.86155 -74.03969 15216 ft 300 kts 21°
2025-10-09 12:57 4.90153 -74.02581 16579 ft 307 kts 20°
2025-10-09 12:58 4.92223 -74.01915 17046 ft 320 kts 20°
2025-10-09 12:58 4.96816 -74.00324 17204 ft 370 kts 21°
2025-10-09 12:59 5.01717 -73.98586 16970 ft 374 kts 20°
2025-10-09 12:59 5.06807 -73.97304 17234 ft 377 kts 13°
2025-10-09 13:00 5.14471 -73.95454 17152 ft 376 kts 15°
2025-10-09 13:00 5.19587 -73.94128 17119 ft 373 kts 21°
2025-10-09 13:01 5.24094 -73.91564 17226 ft 375 kts 41°
2025-10-09 13:01 5.27412 -73.87464 18173 ft 381 kts 64°
2025-10-09 13:02 5.28419 -73.85035 19090 ft 375 kts 73°
2025-10-09 13:02 5.29306 -73.79881 20352 ft 382 kts 81°
2025-10-09 13:03 5.30318 -73.74619 21585 ft 390 kts 78°
2025-10-09 13:03 5.31518 -73.69273 22745 ft 399 kts 77°
2025-10-09 13:04 5.33482 -73.61084 24625 ft 407 kts 76°
2025-10-09 13:04 5.34850 -73.55518 25776 ft 414 kts 76°
2025-10-09 13:06 5.43903 -73.37438 29445 ft 439 kts 43°
2025-10-09 13:08 5.65133 -73.18587 33374 ft 466 kts 43°
2025-10-09 13:10 5.82461 -73.03165 36576 ft 479 kts 43°
2025-10-09 13:12 6.04899 -72.83172 39528 ft 474 kts 43°
2025-10-09 13:14 6.22194 -72.67744 39615 ft 475 kts 44°
2025-10-09 13:16 6.44381 -72.47935 39509 ft 473 kts 44°
2025-10-09 13:18 6.64072 -72.30331 39512 ft 472 kts 44°
2025-10-09 13:21 6.86153 -72.10569 39204 ft 471 kts 44°
2025-10-09 13:22 7.03188 -71.95025 39036 ft 470 kts 49°
2025-10-09 13:24 7.20966 -71.75714 39003 ft 470 kts 49°
2025-10-09 13:26 7.38730 -71.56403 39016 ft 469 kts 49°
2025-10-09 13:28 7.56483 -71.37080 39022 ft 470 kts 49°
2025-10-09 13:30 7.74227 -71.17743 39025 ft 469 kts 49°
2025-10-09 13:32 7.91935 -70.98419 39009 ft 468 kts 49°
2025-10-09 13:34 8.09611 -70.79104 39051 ft 467 kts 49°
2025-10-09 13:37 8.29453 -70.57390 39035 ft 467 kts 49°
2025-10-09 13:38 8.44849 -70.40517 39030 ft 465 kts 49°
2025-10-09 13:40 8.62391 -70.21262 39040 ft 466 kts 49°
2025-10-09 13:42 8.77397 -70.04137 39009 ft 465 kts 50°
2025-10-09 13:44 8.96672 -69.82127 38979 ft 465 kts 50°
2025-10-09 13:46 9.13812 -69.62527 38989 ft 464 kts 50°
2025-10-09 13:48 9.30964 -69.42882 39004 ft 465 kts 50°
2025-10-09 13:50 9.48089 -69.23238 38995 ft 465 kts 50°
2025-10-09 13:52 9.65165 -69.03618 38421 ft 457 kts 50°
2025-10-09 13:54 9.82399 -68.83810 31323 ft 453 kts 50°
2025-10-09 13:56 9.98659 -68.65089 26680 ft 429 kts 50°
2025-10-09 13:57 10.06420 -68.56155 24869 ft 410 kts 50°
2025-10-09 13:58 10.14095 -68.47330 25157 ft 418 kts 50°
2025-10-09 14:00 10.25580 -68.34114 24084 ft 411 kts 50°
2025-10-09 14:00 10.29358 -68.29762 22913 ft 404 kts 50°
2025-10-09 14:01 10.32999 -68.25568 21413 ft 389 kts 51°
2025-10-09 14:01 10.36540 -68.21486 20375 ft 385 kts 51°
2025-10-09 14:02 10.40056 -68.17431 19284 ft 383 kts 50°
2025-10-09 14:02 10.41809 -68.15409 18752 ft 382 kts 50°
2025-10-09 14:03 10.45313 -68.11366 17694 ft 378 kts 50°
2025-10-09 14:03 10.49071 -68.04601 16134 ft 366 kts 76°
2025-10-09 14:04 10.50919 -67.97166 14655 ft 358 kts 77°
2025-10-09 14:04 10.51508 -67.94714 14179 ft 356 kts 77°
2025-10-09 14:05 10.52660 -67.89882 13168 ft 351 kts 77°
2025-10-09 14:05 10.53790 -67.85117 12199 ft 346 kts 77°
2025-10-09 14:06 10.54907 -67.80394 11246 ft 342 kts 77°
2025-10-09 14:06 10.55463 -67.78043 10752 ft 341 kts 77°
2025-10-09 14:07 10.56538 -67.73495 10430 ft 317 kts 77°
2025-10-09 14:07 10.57525 -67.69315 10248 ft 295 kts 77°
2025-10-09 14:08 10.58292 -67.63345 9481 ft 282 kts 89°
2025-10-09 14:08 10.58417 -67.59381 8830 ft 280 kts 88°
2025-10-09 14:09 10.58552 -67.55442 8226 ft 279 kts 88°
2025-10-09 14:09 10.58687 -67.51514 7594 ft 277 kts 88°
2025-10-09 14:10 10.58821 -67.47620 6973 ft 276 kts 88°
2025-10-09 14:10 10.58888 -67.45670 6666 ft 275 kts 89°
2025-10-09 14:11 10.59021 -67.41782 6057 ft 274 kts 89°
2025-10-09 14:11 10.59150 -67.37994 5464 ft 266 kts 89°
2025-10-09 14:12 10.59340 -67.32372 4564 ft 266 kts 89°
2025-10-09 14:12 10.59466 -67.28638 4014 ft 257 kts 88°
2025-10-09 14:13 10.59583 -67.25186 4059 ft 234 kts 89°
2025-10-09 14:13 10.59689 -67.22012 4003 ft 215 kts 89°
2025-10-09 14:14 10.59782 -67.19035 3843 ft 209 kts 89°
2025-10-09 14:14 10.59858 -67.16017 3167 ft 214 kts 89°
2025-10-09 14:15 10.59931 -67.13267 2637 ft 174 kts 89°
2025-10-09 14:15 10.59991 -67.10931 2157 ft 159 kts 89°
2025-10-09 14:16 10.60046 -67.08829 1746 ft 139 kts 89°
2025-10-09 14:16 10.60097 -67.06897 1370 ft 135 kts 88°
2025-10-09 14:17 10.60173 -67.04997 1017 ft 135 kts 87°
2025-10-09 14:17 10.60261 -67.03099 545 ft 135 kts 83°
2025-10-09 14:18 10.60380 -67.01212 259 ft 133 kts 86°
2025-10-09 14:18 10.60423 -66.99905 239 ft 32 kts 89°
2025-10-09 14:19 10.60370 -66.99683 231 ft 17 kts 170°
2025-10-09 14:19 10.60146 -66.99706 237 ft 15 kts 247°
2025-10-09 14:20 10.60132 -66.99915 244 ft 14 kts 259°
2025-10-09 14:20 10.60114 -67.00124 249 ft 15 kts 269°
2025-10-09 14:21 10.60038 -67.00299 252 ft 16 kts 183°
2025-10-09 14:21 10.59919 -67.00440 253 ft 16 kts 268°
2025-10-09 14:22 10.59854 -67.00525 254 ft 2 kts 182°